Duluth Sky Harbor, MN

1:07 AM CDT on April 23, 2017 (GMT -0500)
Sky Harbor

Weather History for KDYT - September, 2013

Change the Weather History Date:

Thursday, September 19, 2013

  Actual Average Record
Temperature  
Mean Temperature 62 °F -  
Max Temperature 66 °F 65 °F 90 °F (1984)
Min Temperature 59 °F 47 °F 31 °F (1991)
Degree Days  
Heating Degree Days 2    
Growing Degree Days 12 (Base 50)    
Moisture  
Dew Point 59 °F    
Average Humidity 93    
Maximum Humidity 100    
Minimum Humidity 88    
Precipitation  
Precipitation 0.00 in - - ()
Sea Level Pressure  
Sea Level Pressure 29.71 in    
Wind  
Wind Speed 8 mph (ENE)    
Max Wind Speed 14 mph    
Max Gust Speed -    
Visibility 4 miles    
Events Fog , Rain , Thunderstorm    
Averages and records for this station are not official NWS values.
T = Trace of Precipitation, MM = Missing Value Source: NWS Daily Summary

Daily Weather History Graph

Daily Weather History Graph

Search for Another Location

Airport or City:

Trip Planner

Search our weather history database for the weather conditions in past years. The results will help you decide how hot, cold, wet, or windy it might be!

Date:

Astronomy

Sep. 19, 2013 Rise Set
Actual Time 6:51 AM CDT 7:11 PM CDT
Civil Twilight 6:21 AM CDT 7:41 PM CDT
Nautical Twilight 5:45 AM CDT 8:17 PM CDT
Astronomical Twilight 5:08 AM CDT 8:54 PM CDT
Moon 7:04 PM CDT (9/19) 7:04 AM CDT (9/19)
Length of Visible Light 13h 20m
Length of Day
12h 19m
Full, 100% of the Moon is Illuminated
Sep 19
Full
Sep 26
Last Quarter
Oct 4
New
Oct 11
First Quarter
Oct 18
Full

Hourly Weather History & Observations

Time (CDT) Temp. Dew Point Humidity Pressure Visibility Wind Dir Wind Speed Gust Speed Precip Events Conditions
12:14 AM 60.8 °F 57.2 °F 88% 29.75 in 4.0 mi NE 13.8 mph - N/A   Overcast
12:21 AM 60.8 °F 57.2 °F 88% 29.75 in 4.0 mi NE 13.8 mph - N/A   Overcast
1:01 AM 60.8 °F 57.2 °F 88% 29.75 in 4.0 mi ENE 11.5 mph - N/A   Overcast
1:22 AM 60.8 °F 57.2 °F 88% 29.76 in 4.0 mi ENE 10.4 mph - N/A   Overcast
1:34 AM 60.8 °F 57.2 °F 88% 29.77 in 4.0 mi East 4.6 mph - N/A   Overcast
1:53 AM 60.8 °F 57.2 °F 88% 29.78 in 4.0 mi ENE 4.6 mph - N/A   Overcast
2:13 AM 60.8 °F 57.2 °F 88% 29.77 in 4.0 mi ENE 5.8 mph - N/A   Overcast
2:34 AM 59.0 °F 57.2 °F 94% 29.76 in 4.0 mi ENE 6.9 mph - N/A Thunderstorm Overcast
2:53 AM 59.0 °F 57.2 °F 94% 29.76 in 4.0 mi ENE 8.1 mph - N/A   Overcast
3:13 AM 59.0 °F 57.2 °F 94% 29.76 in 4.0 mi NE 5.8 mph - N/A   Overcast
3:34 AM 59.0 °F 57.2 °F 94% 29.75 in 3.0 mi ENE 6.9 mph - N/A   Overcast
3:53 AM 59.0 °F 57.2 °F 94% 29.73 in 2.5 mi ENE 6.9 mph - N/A   Overcast
4:13 AM 59.0 °F 57.2 °F 94% 29.73 in 3.0 mi NE 8.1 mph - N/A   Overcast
4:34 AM 59.0 °F 57.2 °F 94% 29.73 in 2.5 mi NE 6.9 mph - N/A   Overcast
4:53 AM 59.0 °F 57.2 °F 94% 29.73 in 3.0 mi NE 8.1 mph - N/A   Overcast
5:13 AM 59.0 °F 57.2 °F 94% 29.73 in 2.5 mi NE 4.6 mph - N/A   Overcast
5:34 AM 59.0 °F 57.2 °F 94% 29.72 in 2.5 mi ENE 5.8 mph - N/A   Overcast
5:53 AM 59.0 °F 57.2 °F 94% 29.72 in 3.0 mi NNE 6.9 mph - N/A   Overcast
6:13 AM 59.0 °F 57.2 °F 94% 29.72 in 2.5 mi NNE 8.1 mph - N/A Rain Light Rain
6:33 AM 59.0 °F 57.2 °F 94% 29.68 in 2.5 mi NE 13.8 mph - N/A   Overcast
6:53 AM 59.0 °F 57.2 °F 94% 29.70 in 2.5 mi East 10.4 mph - N/A Thunderstorm Overcast
7:13 AM 59.0 °F 57.2 °F 94% 29.71 in 1.2 mi East 12.7 mph - N/A   Overcast
7:33 AM 59.0 °F 57.2 °F 94% 29.71 in 0.2 mi ENE 11.5 mph - N/A Fog Fog
7:54 AM 59.0 °F 57.2 °F 94% 29.72 in 0.5 mi ENE 9.2 mph - N/A Fog Fog
8:13 AM 59.0 °F 57.2 °F 94% 29.72 in 0.5 mi NE 6.9 mph - N/A Fog Fog
8:33 AM 59.0 °F 57.2 °F 94% 29.73 in 1.0 mi ENE 6.9 mph - N/A   Overcast
8:54 AM 59.0 °F 57.2 °F 94% 29.73 in 2.0 mi NE 6.9 mph - N/A   Overcast
9:13 AM 59.0 °F 57.2 °F 94% 29.73 in 2.5 mi ENE 6.9 mph - N/A   Overcast
9:33 AM 59.0 °F 57.2 °F 94% 29.72 in 2.5 mi ENE 8.1 mph - N/A   Overcast
9:54 AM 59.0 °F 57.2 °F 94% 29.71 in 2.5 mi ENE 9.2 mph - N/A   Overcast
10:13 AM 59.0 °F 57.2 °F 94% 29.73 in 3.0 mi ENE 8.1 mph - N/A   Overcast
10:33 AM 59.0 °F 57.2 °F 94% 29.70 in 3.0 mi ENE 6.9 mph - N/A   Overcast
10:54 AM 59.0 °F 57.2 °F 94% 29.70 in 3.0 mi East 6.9 mph - N/A   Overcast
11:13 AM 59.0 °F 57.2 °F 94% 29.69 in 3.0 mi NE 5.8 mph - N/A Thunderstorm Overcast
11:33 AM 59.0 °F 57.2 °F 94% 29.70 in 3.0 mi NE 6.9 mph - N/A   Overcast
11:54 AM 59.0 °F 57.2 °F 94% 29.70 in 2.5 mi NE 9.2 mph - N/A   Overcast
12:13 PM 59.0 °F 57.2 °F 94% 29.71 in 2.5 mi NE 5.8 mph - N/A   Overcast
12:33 PM 59.0 °F 57.2 °F 94% 29.71 in 2.0 mi ENE 8.1 mph - N/A Thunderstorm Overcast
12:53 PM 59.0 °F 57.2 °F 94% 29.73 in 1.5 mi SSE 10.4 mph - N/A Rain , Thunderstorm Thunderstorms and Rain
1:14 PM 59.0 °F 57.2 °F 94% 29.70 in 1.5 mi East 11.5 mph - N/A Rain , Thunderstorm Light Thunderstorms and Rain
1:33 PM 59.0 °F 57.2 °F 94% 29.71 in 2.0 mi SSE 6.9 mph - N/A Rain , Thunderstorm Thunderstorms and Rain
1:53 PM 60.8 °F 57.2 °F 88% 29.70 in 7.0 mi Calm Calm - N/A Rain , Thunderstorm Thunderstorms and Rain
2:14 PM 60.8 °F 57.2 °F 88% 29.68 in 2.5 mi NE 6.9 mph - N/A Rain Light Rain
2:33 PM 60.8 °F 57.2 °F 88% 29.65 in 3.0 mi NNE 9.2 mph - N/A Rain Light Rain
2:53 PM 60.8 °F 57.2 °F 88% 29.65 in 2.5 mi NNE 9.2 mph - N/A Rain Light Rain
3:13 PM 60.8 °F 60.8 °F 100% 29.66 in 3.0 mi East 3.5 mph - N/A   Light Drizzle
3:33 PM 60.8 °F 60.8 °F 100% 29.67 in 7.0 mi ESE 3.5 mph - N/A   Overcast
3:54 PM 62.6 °F 60.8 °F 94% 29.68 in 7.0 mi South 3.5 mph - N/A   Overcast
4:13 PM 62.6 °F 60.8 °F 94% 29.69 in 10.0 mi WSW 5.8 mph - N/A   Overcast
4:33 PM 62.6 °F 60.8 °F 94% 29.69 in 7.0 mi WSW 6.9 mph - N/A   Overcast
4:53 PM 62.6 °F 60.8 °F 94% 29.69 in 7.0 mi WSW 4.6 mph - N/A   Overcast
5:13 PM 62.6 °F 60.8 °F 94% 29.68 in 5.0 mi WNW 3.5 mph - N/A   Mostly Cloudy
5:34 PM 62.6 °F 60.8 °F 94% 29.68 in 5.0 mi Calm Calm - N/A   Mostly Cloudy
5:53 PM 62.6 °F 60.8 °F 94% 29.68 in 4.0 mi East 3.5 mph - N/A   Overcast
6:13 PM 60.8 °F 60.8 °F 100% 29.69 in 4.0 mi ESE 4.6 mph - N/A   Overcast
6:34 PM 60.8 °F 59.0 °F 94% 29.70 in 4.0 mi ESE 5.8 mph - N/A   Overcast
6:53 PM 60.8 °F 59.0 °F 94% 29.72 in 4.0 mi ESE 3.5 mph - N/A   Overcast
7:13 PM 60.8 °F 59.0 °F 94% 29.71 in 4.0 mi ENE 4.6 mph - N/A   Overcast
7:33 PM 60.8 °F 59.0 °F 94% 29.71 in 4.0 mi Calm Calm - N/A   Overcast
7:53 PM 60.8 °F 59.0 °F 94% 29.71 in 3.0 mi Calm Calm - N/A   Overcast
8:13 PM 60.8 °F 59.0 °F 94% 29.71 in 3.0 mi Calm Calm - N/A   Overcast
8:33 PM 60.8 °F 59.0 °F 94% 29.71 in 1.5 mi Calm Calm - N/A   Overcast
8:54 PM 60.8 °F 59.0 °F 94% 29.71 in 0.5 mi Calm Calm - N/A Fog Fog
9:13 PM 60.8 °F 59.0 °F 94% 29.70 in 0.5 mi SW 3.5 mph - N/A Fog Fog
9:33 PM 60.8 °F 59.0 °F 94% 29.70 in 0.2 mi Calm Calm - N/A Fog Fog
9:53 PM 62.6 °F 60.8 °F 94% 29.69 in 2.5 mi WSW 6.9 mph - N/A   Overcast
10:13 PM 64.4 °F 64.4 °F 100% 29.69 in 10.0 mi West 12.7 mph - N/A   Scattered Clouds
10:33 PM 66.2 °F 64.4 °F 94% 29.70 in 10.0 mi West 10.4 mph - N/A   Scattered Clouds
10:53 PM 66.2 °F 64.4 °F 94% 29.70 in 10.0 mi West 10.4 mph - N/A   Scattered Clouds
11:13 PM 66.2 °F 62.6 °F 88% 29.70 in 10.0 mi West 10.4 mph - N/A   Clear
11:34 PM 64.4 °F 62.6 °F 94% 29.71 in 10.0 mi WSW 8.1 mph - N/A   Scattered Clouds
11:53 PM 64.4 °F 60.8 °F 88% 29.71 in 10.0 mi SW 5.8 mph - N/A   Scattered Clouds